[[{"header":{"parameterUnit":"m.s-1","parameterCategory":1,"la1":30.2991,"la2":30.254,"lo1":-89.0895,"lo2":-89.0444,"dy":0.0017,"dx":0.0017,"nx":28,"ny":28,"refTime":"2024-04-17T09:00:00:Z","depth":0,"parameterNumber":2,"parameterNumberName":"U-component_of_WINDS"},"data":[0,0,0,0,0,0,0,0,0,0,0,0,0,0,0,0,0,0,0,0,0,0,0,0,0,0,0,0,0,0,0,0,0,0,0,0,0,0,0,0,0,0,0,0,0,0,0,0,0,0,0,0,0,0,0,0,0,0,-2.7252,-2.7252,0,-2.7284,-2.7285,-2.7285,-2.7259,-2.7258,-2.7257,-2.7256,-2.7289,-2.7291,-2.7293,0,0,0,0,0,0,0,0,0,0,0,0,0,-2.7167,-2.7169,-2.7252,-2.7252,-2.7253,-2.7284,-2.7285,-2.7285,-2.7259,-2.7258,-2.7256,-2.7255,-2.7288,-2.7291,-2.7293,0,0,0,0,0,0,0,0,0,0,0,0,0,-2.7202,-2.7169,-2.7252,-2.7244,-2.7243,-2.7284,-2.7285,-2.7285,-2.7259,-2.7258,-2.7256,-2.7254,-2.7288,-2.729,-2.7293,-2.7344,0,0,-2.7302,-2.7303,0,0,0,0,0,0,0,0,-2.72,-2.7205,-2.7244,-2.7244,-2.7244,-2.7266,-2.7267,-2.7305,-2.726,-2.7253,-2.7255,-2.7254,-2.7283,-2.7286,-2.7296,-2.7346,-2.7347,-2.7302,-2.7304,-2.7305,-2.7306,0,0,0,0,0,0,0,-2.7198,-2.7204,-2.7265,-2.7245,-2.7245,-2.7238,-2.7241,-2.7274,-2.7277,-2.7254,-2.7252,-2.7256,-2.7282,-2.7293,-2.7296,-2.7348,-2.7302,-2.7305,-2.7307,-2.7308,-2.744,-2.7442,0,0,0,0,0,0,-2.7196,-2.7202,-2.7264,-2.7266,-2.7217,-2.7241,-2.7244,-2.726,-2.7276,-2.7277,-2.7257,-2.7255,-2.7289,-2.7293,-2.7297,-2.7357,-2.7305,-2.7308,-2.731,-2.7438,-2.744,-2.7442,0,0,0,0,0,0,-2.7194,-2.7202,-2.7262,-2.7233,-2.724,-2.7244,-2.7262,-2.7262,-2.7273,-2.7279,-2.728,-2.7268,-2.7288,-2.7293,-2.7332,-2.7358,-2.7309,-2.7312,-2.7436,-2.7439,-2.7441,-2.7477,0,0,0,0,0,0,-2.7192,-2.7201,-2.7221,-2.7234,-2.7242,-2.7298,-2.7264,-2.7264,-2.7278,-2.7274,-2.7289,-2.729,-2.7287,-2.7328,-2.7335,-2.7361,-2.7314,-2.7434,-2.7437,-2.744,-2.7474,-2.7481,-2.7487,0,0,0,0,0,-2.7189,-2.7231,-2.7222,-2.723,-2.7267,-2.7299,-2.7304,-2.7299,-2.728,-2.7299,-2.7303,-2.729,-2.7354,-2.7333,-2.734,-2.7367,-2.7432,-2.7436,-2.744,-2.7471,-2.7479,-2.7487,0,0,0,0,0,0,-2.7222,-2.7232,-2.7223,-2.727,-2.7284,-2.7295,-2.7319,-2.7309,-2.7328,-2.7324,-2.7318,-2.7321,-2.7362,-2.7369,-2.7345,-2.7416,-2.739,-2.7396,-2.7411,-2.7419,-2.7425,-2.7422,-2.7317,0,0,0,0,0,-2.7234,-2.7259,-2.7267,-2.7308,-2.7315,-2.7316,-2.733,-2.7325,-2.7339,-2.7345,-2.7352,-2.7366,-2.7389,-2.7404,-2.7426,-2.7475,-2.7477,-2.7497,-2.7503,-2.7508,-2.7513,-2.7538,-2.7546,-2.7455,-2.7455,-2.7455,0,0,-2.7261,-2.7269,-2.7286,-2.7315,-2.7325,-2.735,-2.7321,-2.735,-2.7369,-2.7349,-2.7386,-2.7392,-2.7407,-2.745,-2.747,-2.7457,-2.7539,-2.7514,-2.7518,-2.752,-2.7543,-2.7551,-2.7559,-2.7458,-2.7458,-2.7457,0,0,-2.7321,-2.7331,-2.7365,-2.7375,-2.7391,-2.7391,-2.7399,-2.7411,-2.7413,-2.745,-2.7436,-2.7458,-2.7498,-2.7509,-2.752,-2.7583,-2.757,-2.759,-2.7624,-2.7648,-2.7655,-2.7661,-2.7682,-2.769,-2.7595,-2.7595,-2.7595,0,-2.7352,-2.7391,-2.7384,-2.7414,-2.7426,-2.7409,-2.7442,-2.7453,-2.7474,-2.7483,-2.7468,-2.7517,-2.7527,-2.7572,-2.7587,-2.7597,-2.7605,-2.7588,-2.7655,-2.7661,-2.7667,-2.7687,-2.7695,-2.7598,-2.7597,-2.7597,-2.7597,0,-2.7427,-2.7454,-2.7479,-2.75,-2.7515,-2.7547,-2.7544,-2.7561,-2.7554,-2.7555,-2.7592,-2.7603,-2.7625,-2.7636,-2.763,-2.768,-2.7671,-2.7656,-2.7629,-2.7678,-2.7696,-2.7704,-2.7601,-2.76,-2.7599,-2.7599,0,0,-2.751,-2.7525,-2.7535,-2.7543,-2.7557,-2.7578,-2.7608,-2.763,-2.7643,-2.7658,-2.7683,-2.7717,-2.7702,-2.7714,-2.7709,-2.773,-2.7778,-2.7712,-2.7712,-2.7723,-2.7831,-2.7842,-2.7851,-2.7769,-2.7771,-2.7772,-2.7829,0,-2.7571,-2.7623,-2.7617,-2.7667,-2.769,-2.7673,-2.7699,-2.7711,-2.7713,-2.7733,-2.7735,-2.7758,-2.7738,-2.7745,-2.7765,-2.7768,-2.7799,-2.7764,-2.7791,-2.7792,-2.7787,-2.7861,-2.7873,-2.7926,-2.7837,-2.7838,-2.7839,0,-2.7649,-2.7665,-2.7717,-2.7726,-2.7736,-2.7759,-2.7778,-2.7797,-2.7809,-2.7809,-2.7822,-2.7813,-2.7842,-2.7815,-2.7855,-2.7831,-2.7842,-2.7845,-2.7847,-2.7849,-2.7818,-2.7864,-2.7944,-2.7951,-2.7851,-2.785,-2.7849,0,-2.7703,-2.7738,-2.7773,-2.7781,-2.7793,-2.7809,-2.7815,-2.7825,-2.7838,-2.7854,-2.7862,-2.7882,-2.7892,-2.7907,-2.7903,-2.7884,-2.7944,-2.7917,-2.7943,-2.7943,-2.7956,-2.7955,-2.8038,-2.7965,-2.7965,-2.7965,-2.7965,0,-2.7771,-2.7803,-2.7797,-2.7819,-2.7853,-2.7846,-2.7881,-2.7884,-2.7893,-2.7915,-2.7901,-2.7922,-2.7916,-2.7936,-2.7933,-2.7965,-2.797,-2.797,-2.7969,-2.7971,-2.7971,-2.7978,-2.7973,-2.7967,-2.7967,-2.7966,-2.7966,0,-2.7837,-2.7835,-2.7871,-2.7879,-2.7881,-2.7907,-2.7913,-2.7933,-2.7933,-2.796,-2.7966,-2.7966,-2.7988,-2.7986,-2.8011,-2.8009,-2.8049,-2.8044,-2.8045,-2.8043,-2.807,-2.8067,-2.8159,-2.817,-2.8091,-2.8092,-2.8092,0,-2.788,-2.7904,-2.7913,-2.7926,-2.7933,-2.7954,-2.7967,-2.796,-2.7973,-2.7988,-2.8006,-2.8027,-2.8043,-2.8079,-2.8082,-2.8101,-2.8095,-2.8126,-2.8098,-2.8098,-2.8094,-2.8092,-2.8094,-2.8131,-2.8132,-2.8133,-2.8134,0,-2.7957,-2.7954,-2.7972,-2.7989,-2.8004,-2.8018,-2.803,-2.8042,-2.8036,-2.8051,-2.8074,-2.8086,-2.8111,-2.8132,-2.8149,-2.8155,-2.8143,-2.8142,-2.8149,-2.8151,-2.815,-2.815,-2.8059,-2.814,-2.814,-2.8139,-2.8139,-2.8138,-2.8012,-2.8032,-2.8041,-2.8061,-2.8069,-2.808,-2.8098,-2.81,-2.8118,-2.8138,-2.8133,-2.8157,-2.8167,-2.8189,-2.8196,-2.8215,-2.8204,-2.8214,-2.8217,-2.8219,-2.8222,-2.8148,-2.8218,-2.8218,-2.8218,-2.8218,-2.8218,0,-2.8087,-2.8091,-2.811,-2.8126,-2.8142,-2.8129,-2.8141,-2.8155,-2.8177,-2.8186,-2.8202,-2.8227,-2.8246,-2.8249,-2.8268,-2.8282,-2.8277,-2.8287,-2.8285,-2.8286,-2.8231,-2.8223,-2.8291,-2.829,-2.829,-2.829,-2.829,-2.829,-2.8127,-2.8159,-2.8157,-2.8192,-2.8197,-2.822,-2.8228,-2.8238,-2.8245,-2.8273,-2.8289,-2.829,-2.8297,-2.8315,-2.8332,-2.8332,-2.8339,-2.8351,-2.8349,-2.8298,-2.8291,-2.8284,-2.8276,-2.8353,-2.8353,-2.8403,-2.8403,-2.8403]},{"header":{"parameterUnit":"m.s-1","parameterCategory":1,"la1":30.2991,"la2":30.254,"lo1":-89.0895,"lo2":-89.0444,"dy":0.0017,"dx":0.0017,"nx":28,"ny":28,"refTime":"2024-04-17T09:00:00:Z","depth":0,"parameterNumber":3,"parameterNumberName":"V-component_of_WINDS"},"data":[0,0,0,0,0,0,0,0,0,0,0,0,0,0,0,0,0,0,0,0,0,0,0,0,0,0,0,0,0,0,0,0,0,0,0,0,0,0,0,0,0,0,0,0,0,0,0,0,0,0,0,0,0,0,0,0,0,0,4.281,4.281,0,4.2755,4.2754,4.2753,4.2661,4.266,4.2658,4.2656,4.26,4.26,4.2601,0,0,0,0,0,0,0,0,0,0,0,0,0,4.2837,4.2837,4.281,4.281,4.2809,4.2755,4.2754,4.2753,4.2662,4.266,4.2657,4.2656,4.26,4.26,4.2601,0,0,0,0,0,0,0,0,0,0,0,0,0,4.2808,4.2837,4.281,4.2757,4.2751,4.2755,4.2754,4.2753,4.2662,4.2659,4.2657,4.2655,4.26,4.26,4.2601,4.2653,0,0,4.2601,4.2601,0,0,0,0,0,0,0,0,4.281,4.2807,4.2765,4.276,4.2754,4.2712,4.2743,4.272,4.2663,4.2696,4.2656,4.2653,4.264,4.2636,4.2632,4.265,4.2648,4.2601,4.2601,4.2601,4.2601,0,0,0,0,0,0,0,4.2812,4.2809,4.2788,4.2765,4.2758,4.2735,4.2728,4.2738,4.2683,4.2693,4.2686,4.2681,4.2636,4.2632,4.263,4.2647,4.2601,4.2601,4.2601,4.2601,4.2703,4.2706,0,0,0,0,0,0,4.2822,4.2811,4.279,4.2787,4.2776,4.2737,4.2729,4.2728,4.2683,4.2673,4.2683,4.2677,4.2633,4.263,4.2627,4.2684,4.2601,4.2601,4.2601,4.2701,4.2704,4.2707,0,0,0,0,0,0,4.2823,4.2821,4.2792,4.2797,4.2792,4.2739,4.2739,4.2729,4.2724,4.2675,4.2665,4.2688,4.2631,4.2627,4.2647,4.2681,4.2601,4.2602,4.2698,4.2702,4.2705,4.28,0,0,0,0,0,0,4.2824,4.2822,4.2841,4.2798,4.2792,4.2813,4.2741,4.2729,4.2724,4.2716,4.2677,4.2669,4.2628,4.2647,4.2647,4.268,4.2602,4.2694,4.27,4.2704,4.2793,4.2806,4.2818,0,0,0,0,0,4.2825,4.287,4.2843,4.284,4.2815,4.2815,4.2811,4.2764,4.2728,4.2746,4.2715,4.267,4.2677,4.265,4.2649,4.2683,4.2692,4.2698,4.2704,4.2788,4.2804,4.2817,0,0,0,0,0,0,4.2919,4.2864,4.2832,4.2865,4.2845,4.28,4.2822,4.2783,4.2773,4.2765,4.2707,4.2699,4.2726,4.2706,4.2676,4.273,4.2678,4.2684,4.2742,4.2757,4.2769,4.2773,4.2602,0,0,0,0,0,4.2944,4.2948,4.29,4.2933,4.2925,4.2876,4.2874,4.2839,4.2816,4.2808,4.2777,4.2757,4.2755,4.2754,4.275,4.279,4.278,4.2812,4.2824,4.2835,4.2841,4.2859,4.2873,4.2726,4.2726,4.2726,0,0,4.2995,4.2965,4.2971,4.2951,4.2932,4.2938,4.2869,4.2879,4.2882,4.2809,4.2825,4.2802,4.2776,4.2806,4.2817,4.279,4.2879,4.2842,4.2851,4.2851,4.2867,4.288,4.2893,4.273,4.2729,4.2729,0,0,4.309,4.3068,4.3093,4.3075,4.3046,4.3013,4.3019,4.2979,4.2961,4.2976,4.292,4.2924,4.2921,4.2905,4.2896,4.2984,4.2942,4.2984,4.3047,4.3066,4.3077,4.3087,4.3118,4.313,4.299,4.299,4.299,0,4.3157,4.3164,4.3111,4.3124,4.3116,4.3049,4.3074,4.3059,4.3031,4.3027,4.2996,4.2991,4.2968,4.2993,4.3014,4.3009,4.3014,4.2988,4.308,4.3089,4.3098,4.3126,4.3138,4.2995,4.2994,4.2994,4.2993,0,4.3247,4.3252,4.3276,4.325,4.3245,4.3264,4.3214,4.3215,4.318,4.315,4.3165,4.3136,4.3123,4.3126,4.3093,4.3146,4.3129,4.3091,4.3037,4.3118,4.3144,4.3154,4.3003,4.3001,4.2999,4.2998,0,0,4.3401,4.3344,4.3354,4.3341,4.3303,4.3307,4.3322,4.3309,4.3311,4.3293,4.3304,4.3303,4.3266,4.3256,4.322,4.3236,4.3306,4.3195,4.3193,4.3216,4.3362,4.3391,4.3405,4.3278,4.328,4.3282,4.3364,0,4.3489,4.3512,4.3464,4.3498,4.3502,4.3438,4.3451,4.343,4.3402,4.3401,4.3369,4.3369,4.3321,4.3314,4.3328,4.3295,4.3335,4.3289,4.3288,4.3288,4.3296,4.3419,4.345,4.3529,4.3374,4.3375,4.3376,0,4.3594,4.3581,4.3616,4.3575,4.3575,4.3588,4.3572,4.3572,4.3546,4.3524,4.3512,4.3469,4.3481,4.3429,4.3444,4.3413,4.341,4.3394,4.3396,4.3394,4.3338,4.342,4.3553,4.3565,4.3392,4.3391,4.339,0,4.3703,4.3694,4.3713,4.3704,4.3657,4.3668,4.3649,4.362,4.3615,4.3601,4.3597,4.3584,4.3578,4.3569,4.3523,4.349,4.3543,4.3488,4.3525,4.3526,4.3539,4.3539,4.3674,4.3537,4.3537,4.3537,4.3537,0,4.3805,4.3829,4.3761,4.3773,4.3797,4.3742,4.3767,4.3742,4.3717,4.3722,4.3666,4.3672,4.3612,4.3611,4.3575,4.3592,4.359,4.3572,4.3562,4.3577,4.358,4.3574,4.3568,4.354,4.3539,4.3539,4.3538,0,4.3931,4.3886,4.3903,4.3857,4.3846,4.3866,4.3827,4.3836,4.3803,4.3811,4.3809,4.3759,4.3755,4.3708,4.3695,4.367,4.3701,4.3681,4.371,4.3704,4.3743,4.374,4.388,4.3895,4.3749,4.3751,4.3752,0,4.4,4.4016,4.3972,4.3972,4.3955,4.3955,4.3949,4.3896,4.3892,4.3863,4.3875,4.3866,4.3857,4.3854,4.3815,4.3804,4.3783,4.3833,4.3781,4.3795,4.3783,4.3783,4.3784,4.3844,4.3846,4.3847,4.3849,0,4.4126,4.4103,4.4097,4.4083,4.4078,4.4064,4.4047,4.405,4.399,4.3989,4.3984,4.3977,4.3962,4.3954,4.3935,4.3915,4.3872,4.3865,4.3873,4.3888,4.3904,4.3896,4.374,4.3862,4.3861,4.386,4.3859,4.3859,4.4225,4.4236,4.4207,4.4202,4.4183,4.4168,4.4174,4.4142,4.4137,4.412,4.4089,4.4089,4.406,4.4031,4.4015,4.4013,4.3988,4.3999,4.4002,4.4006,4.4014,4.3905,4.401,4.4009,4.4009,4.4009,4.4008,0,4.4348,4.4326,4.4322,4.4299,4.4295,4.4254,4.4232,4.4232,4.4232,4.421,4.4201,4.4195,4.4186,4.4147,4.4134,4.4141,4.412,4.4139,4.4138,4.4134,4.4038,4.4032,4.4155,4.4155,4.4155,4.4155,4.4155,4.4155,4.4412,4.4429,4.4402,4.4408,4.4385,4.4385,4.4376,4.4362,4.4343,4.4339,4.4332,4.4306,4.4276,4.426,4.425,4.4239,4.4236,4.4262,4.4244,4.4155,4.4141,4.4127,4.4122,4.4262,4.4262,4.434,4.4341,4.4341]}]]